Terminal Aerodrome Forecast
Issued by NWS Binghamton, NY

Home | Current Version | Previous Version | Text Only | Print | Product List | Glossary On
Versions: 1 2 3 4 5 6 7 8 9 10 11 12 13 14 15 16 17 18
000
FTUS41 KBGM 070202 AAA
TAFAVP
TAF AMD
KAVP 070202Z 0702/0724 00000KT P6SM OVC015
      TEMPO 0709/0712 4SM BR OVC007
     FM071500 21006KT 6SM HZ BKN050
     FM072000 22008G14KT P6SM SCT060=

USA.gov is the U.S. government's official web portal to all federal, state and local government web resources and services.